SCD 1 1 22490U 93009B 26035.05107096 .00000523 00000+0 91842-4 0 9999 2 22490 24.9702 309.5732 0042028 168.7413 305.8421 14.46046816741823 TECHSAT 1B (GO-32) 1 25397U 98043D 26035.23352311 .00000104 00000+0 65047-4 0 9996 2 25397 98.9981 24.6976 0000631 186.9028 173.2142 14.24396132432408 SCD 2 1 25504U 98060A 26035.07543432 .00000539 00000+0 99575-4 0 9998 2 25504 24.9936 173.0217 0016807 155.7459 5.4618 14.45460925441047 DLR-TUBSAT 1 25757U 99029B 26035.19555068 .00000157 00000+0 50449-4 0 9998 2 25757 98.6622 26.3755 0014922 38.2793 321.9458 14.52383101413940 TERRA 1 25994U 99068A 26035.29363231 .00000543 00000+0 11976-3 0 9994 2 25994 97.9662 89.9921 0001009 304.5752 117.8078 14.60976977390206 MAROC-TUBSAT 1 27004U 01056D 26035.33391831 -.00000024 00000+0 25834-4 0 9994 2 27004 99.7959 209.7269 0020497 122.1618 315.5507 13.70256225207997 AQUA 1 27424U 02022A 26035.29291392 .00001282 00000+0 26611-3 0 9999 2 27424 98.4116 2.0656 0001649 56.5348 49.4858 14.61890646263857 IRS-P6 (RESOURCESAT-1) 1 28051U 03046A 26035.35415774 .00000349 00000+0 13095-3 0 9997 2 28051 98.2104 78.2580 0064739 21.9175 348.7793 14.36096729161462 SHIYAN-1 (SY-1) 1 28220U 04012A 26035.19637002 .00017324 00000+0 59938-3 0 9998 2 28220 97.8840 104.9316 0007027 124.1448 236.0459 15.29939677190733 AURA 1 28376U 04026A 26035.20941866 .00001265 00000+0 26727-3 0 9990 2 28376 98.3258 350.7100 0001382 65.9865 294.1480 14.61074828146798 IRS-P5 (CARTOSAT-1) 1 28649U 05017A 26035.32090516 .00001580 00000+0 16660-3 0 9999 2 28649 97.5448 64.3533 0002380 112.1436 248.0035 14.90637235124024 SINAH 1 1 28893U 05043D 26035.33439671 .00000553 00000+0 11481-3 0 9994 2 28893 98.2636 169.0483 0013936 336.9142 23.1432 14.64033754 81086 EROS B 1 29079U 06014A 26035.21216273 .03251126 23997-5 14235-2 0 9990 2 29079 97.3215 160.5595 0013583 295.8640 64.1249 16.22268884 99260 RESURS-DK 1 1 29228U 06021A 26035.20668578 .00003555 00000+0 20955-3 0 9991 2 29228 69.9354 323.6209 0004919 209.0108 151.0785 15.12538055 82461 ARIRANG-2 (KOMPSAT-2) 1 29268U 06031A 26035.29786850 .00000308 00000+0 66450-4 0 9993 2 29268 97.8270 226.1656 0015327 131.5803 41.0529 14.64555931 42021 LAPAN-TUBSAT 1 29709U 07001A 26035.25488316 .00000626 00000+0 78577-4 0 9999 2 29709 98.1293 31.5289 0010811 258.3064 101.6938 14.85773871 31416 HAIYANG-1B 1 31113U 07010A 26034.52576112 .00000128 00000+0 64645-4 0 9990 2 31113 98.3377 21.6405 0012458 235.1315 124.8698 14.30987601981517 COSMO-SKYMED 1 1 31598U 07023A 26035.29709161 .00003802 00000+0 34193-3 0 9994 2 31598 97.8857 226.0697 0001214 75.3033 284.8323 14.96265492 9910 TERRASAR-X 1 31698U 07026A 26034.54497768 .00001853 00000+0 91422-4 0 9995 2 31698 97.4460 44.1563 0001905 80.9546 279.1904 15.19147084 32938 WORLDVIEW-1 (WV-1) 1 32060U 07041A 26035.28642349 .00009877 00000+0 41163-3 0 9995 2 32060 97.3808 156.9697 0001025 270.1804 89.9316 15.23905806 22639 YAOGAN-3 1 32289U 07055A 26035.33889344 .00005101 00000+0 53213-3 0 9992 2 32289 97.8308 66.4770 0001581 101.9842 258.1553 14.90186058986072 COSMO-SKYMED 2 1 32376U 07059A 26035.30031072 .00001487 00000+0 19332-3 0 9994 2 32376 97.8838 220.8239 0001553 83.3018 276.8372 14.82151611982317 RADARSAT-2 1 32382U 07061A 26035.30303722 .00000082 00000+0 48662-4 0 9997 2 32382 98.5812 44.1183 0001135 90.4194 269.7118 14.29979145946960 CARTOSAT-2A 1 32783U 08021A 26035.32138144 .00001410 00000+0 19724-3 0 9997 2 32783 97.7843 88.4505 0011751 176.4646 183.6651 14.79037820959163 HUANJING 1A (HJ-1A) 1 33320U 08041A 26035.25124458 .00001998 00000+0 24786-3 0 9997 2 33320 97.6583 26.3368 0018094 211.4587 148.5547 14.83604849938695 HUANJING 1B (HJ-1B) 1 33321U 08041B 26035.29833741 .00001732 00000+0 21723-3 0 9998 2 33321 97.6438 29.9365 0034943 259.6314 100.0961 14.83011395938718 GEOEYE 1 1 33331U 08042A 26035.28202087 .00000677 00000+0 13598-3 0 9990 2 33331 98.1271 110.8909 0004902 109.5505 250.6227 14.64722399930699 THEOS 1 33396U 08049A 26035.29960748 .00000171 00000+0 10034-3 0 9995 2 33396 98.5776 96.7880 0001140 84.3449 275.7858 14.20110458899109 COSMO-SKYMED 3 1 33412U 08054A 26035.30088301 .00002530 00000+0 17801-3 0 9998 2 33412 97.8434 251.6085 0016289 2.1025 358.0266 15.05925038936931 YAOGAN-4 1 33446U 08061A 26035.31959842 .00001333 00000+0 17081-3 0 9991 2 33446 97.9226 329.9131 0015239 138.8830 221.3535 14.82874303925979 GOSAT (IBUKI) 1 33492U 09002A 26035.25163667 .00001072 00000+0 19744-3 0 9991 2 33492 98.0760 148.1107 0001539 96.7243 263.4137 14.67550814911967 DEIMOS-1 1 35681U 09041A 26035.30610416 .00001021 00000+0 15865-3 0 9995 2 35681 97.7193 198.4343 0000123 127.5989 232.5232 14.75057854887299 DUBAISAT-1 1 35682U 09041B 26035.32931098 .00001725 00000+0 26491-3 0 9998 2 35682 97.9826 170.2376 0011376 133.2438 226.9722 14.74800678885517 OCEANSAT-2 1 35931U 09051A 26035.30605979 -.00000162 00000+0 -85171-4 0 9997 2 35931 98.2262 35.4834 0015633 251.5915 108.3553 13.99641750860740 WORLDVIEW-2 (WV-2) 1 35946U 09055A 26035.25531382 .00000194 00000+0 78970-4 0 9999 2 35946 98.4730 110.5928 0002988 253.7057 106.3802 14.37825127856540 SMOS 1 36036U 09059A 26035.24312831 .00000425 00000+0 14944-3 0 9996 2 36036 98.4405 224.5052 0001257 87.5892 272.5440 14.39732410854324 YAOGAN-7 1 36110U 09069A 26035.25533323 .00000818 00000+0 12058-3 0 9992 2 36110 98.0261 281.8119 0025994 106.8592 253.5472 14.77831643869992 TANDEM-X 1 36605U 10030A 26034.54497634 .00001936 00000+0 95390-4 0 9999 2 36605 97.4464 44.1566 0001914 97.2966 262.8486 15.19147232866355 CARTOSAT-2B 1 36795U 10035A 26035.30164344 .00001042 00000+0 14872-3 0 9991 2 36795 97.7769 87.5693 0010329 262.3117 97.6922 14.78731371840214 YAOGAN-10 1 36834U 10038A 26035.34252854 .00002861 00000+0 34279-3 0 9999 2 36834 97.9099 59.7613 0001404 95.7207 274.9699 14.84869683837493 COSMO-SKYMED 4 1 37216U 10060A 26035.31294035 -.00000346 00000+0 -36905-4 0 9990 2 37216 97.8825 220.8360 0001288 82.8716 277.2644 14.82144608824882 RESOURCESAT-2 1 37387U 11015A 26035.27745892 -.00000083 00000+0 -17459-4 0 9998 2 37387 98.7792 103.5637 0005001 234.5425 125.5285 14.21455246767291 HAIYANG-2A 1 37781U 11043A 26035.32971775 .00000305 00000+0 34302-3 0 9994 2 37781 99.3392 40.4431 0000845 15.6790 344.4387 13.78770362728378 RASAT 1 37791U 11044D 26035.27688891 .00000598 00000+0 11267-3 0 9993 2 37791 98.0601 128.7323 0019385 252.9173 191.6856 14.68004682773680 SRMSAT 1 37841U 11058D 26034.70280699 .00000463 00000+0 10722-3 0 9991 2 37841 19.9708 147.4047 0011631 174.9069 332.8041 14.11534324738933 PLEIADES 1A 1 38012U 11076F 26035.31390072 .00000322 00000+0 78979-4 0 9990 2 38012 98.1743 112.2361 0001245 105.4523 321.5377 14.58569159752629 ZIYUAN 1-02C (ZY 1-02C) 1 38038U 11079A 26035.33402830 .00000539 00000+0 19212-3 0 9993 2 38038 98.4245 105.3410 0006199 355.8448 92.8156 14.38086567740114 ARIRANG-3 (KOMPSAT-3) 1 38338U 12025B 26035.27039397 .00001035 00000+0 21598-3 0 9997 2 38338 98.1786 355.0194 0006235 158.5786 201.5678 14.61967656731921 EXACTVIEW-1 (ADS-1B) 1 38709U 12039C 26035.32053582 .00000195 00000+0 10320-3 0 9999 2 38709 98.9626 149.8346 0010789 189.3311 170.7669 14.24936174703787 SPOT 6 1 38755U 12047A 26035.31539317 .00000488 00000+0 11451-3 0 9994 2 38755 98.1485 104.0902 0001141 97.7203 262.4126 14.58608502713683 PLEIADES 1B 1 39019U 12068A 26035.33524046 .00000493 00000+0 11587-3 0 9992 2 39019 98.2082 112.1531 0001356 104.6628 255.4722 14.58553437701481 GOKTURK 2 1 39030U 12073A 26035.29647847 .00000332 00000+0 55875-4 0 9992 2 39030 97.6882 239.3168 0002015 72.1030 288.0400 14.75384470704916 LANDSAT 8 1 39084U 13008A 26035.28712994 .00000474 00000+0 11521-3 0 9991 2 39084 98.1985 107.5484 0001297 93.7297 266.4050 14.57114759678548 SARAL 1 39086U 13009A 26035.29098777 .00000141 00000+0 67963-4 0 9994 2 39086 98.5526 223.5275 0001456 356.0723 4.0450 14.32780738676578 GAOFEN-1 1 39150U 13018A 26035.30628928 .00001139 00000+0 17033-3 0 9995 2 39150 97.9245 109.9966 0016703 339.0975 20.9550 14.76547583688631 VNREDSAT 1 1 39160U 13021B 26035.30673164 .00000547 00000+0 11060-3 0 9998 2 39160 97.9285 93.6853 0001403 97.7988 262.3375 14.65022656680831 ARIRANG-5 (KOMPSAT-5) 1 39227U 13042A 26035.28248418 .00000796 00000+0 61225-4 0 9997 2 39227 97.6157 223.8292 0001729 213.4927 146.6190 15.04490366683872 SKYSAT-A 1 39418U 13066C 26035.08738942 .00004444 00000+0 26029-3 0 9995 2 39418 97.4019 88.6672 0023085 57.1047 303.2401 15.12087336668364 DUBAISAT-2 1 39419U 13066D 26035.23982012 .00008342 00000+0 53054-3 0 9991 2 39419 97.4499 29.0326 0013009 124.0980 236.1486 15.08984452666339 GPM-CORE 1 39574U 14009C 26035.29407896 .00009487 00000+0 20714-3 0 9997 2 39574 64.9741 33.2739 0010022 249.6361 110.3703 15.44678429677289 SENTINEL-1A 1 39634U 14016A 26035.27038407 .00000258 00000+0 64447-4 0 9997 2 39634 98.1815 44.7240 0001303 89.7216 270.4133 14.59198649630634 KAZEOSAT 1 1 39731U 14024A 26035.28661124 .00000137 00000+0 54626-4 0 9997 2 39731 98.3351 110.9720 0001041 91.0537 269.0772 14.42064328619402 ALOS-2 1 39766U 14029A 26035.30826381 .00000607 00000+0 88194-4 0 9990 2 39766 97.9221 134.3859 0001438 102.5712 257.5660 14.79478399631934 KAZEOSAT 2 1 40010U 14033A 26035.32030265 .00000943 00000+0 11555-3 0 9998 2 40010 97.5486 241.8678 0009731 44.5159 315.6837 14.85277590629233 HODOYOSHI-4 1 40011U 14033B 26035.28570560 .00001805 00000+0 20267-3 0 9999 2 40011 97.5424 226.5414 0024594 29.2932 330.9658 14.87718554629049 DEIMOS-2 1 40013U 14033D 26035.25980766 .00002468 00000+0 24111-3 0 9999 2 40013 97.6018 274.2941 0002110 71.2074 288.9375 14.93256879617881 HODOYOSHI-3 1 40015U 14033F 26035.32879120 .00001667 00000+0 19936-3 0 9999 2 40015 97.6248 203.8534 0034355 72.9720 287.5255 14.85033477627900 SPOT 7 1 40053U 14034A 26035.30706242 .00000633 00000+0 13895-3 0 9994 2 40053 98.0818 101.1285 0001049 85.5777 274.5544 14.60819327617735 SKYSAT-B 1 40072U 14037D 26035.09919465 .00002032 00000+0 23039-3 0 9993 2 40072 98.3682 346.6519 0005670 5.0556 355.0715 14.87580618626170 WORLDVIEW-3 (WV-3) 1 40115U 14048A 26035.28236407 .00000246 00000+0 35283-4 0 9992 2 40115 97.8697 111.9072 0002316 60.9230 299.2217 14.84751054622182 GAOFEN-2 1 40118U 14049A 26035.33099795 .00000919 00000+0 12638-3 0 9994 2 40118 98.0295 99.5732 0006363 311.2134 48.8529 14.80716486619576 YAOGAN-21 1 40143U 14053A 26035.32541895 .00011936 00000+0 48865-3 0 9991 2 40143 97.1675 81.3109 0007938 192.3400 167.7645 15.24422923634707 YAOGAN-22 1 40275U 14063A 26035.32431286 -.00000050 00000+0 -10133-4 0 9995 2 40275 100.7474 184.5115 0006797 127.9930 232.1796 13.15525426542340 ASNARO 1 40298U 14070A 26035.27340499 .00016111 00000+0 76219-3 0 9996 2 40298 97.3576 114.8962 0004316 245.8644 114.2139 15.19437833623826 YAOGAN-24 1 40310U 14072A 26035.29391199 .00001086 00000+0 16472-3 0 9998 2 40310 98.1258 171.6832 0012658 334.8763 25.1829 14.76155485604112 CBERS 4 1 40336U 14079A 26035.32515631 .00000189 00000+0 80376-4 0 9994 2 40336 98.3219 96.4869 0001209 54.0376 306.0922 14.35506274584892 YAOGAN-26 1 40362U 14088A 26035.26143959 .00030891 00000+0 73257-3 0 9998 2 40362 97.0655 39.1141 0005751 146.3184 213.8430 15.41659154617188 SMAP 1 40376U 15003A 26035.29314766 .00000662 00000+0 13699-3 0 9997 2 40376 98.1302 44.2516 0001434 90.4764 269.6603 14.63431560588184 KOMPSAT-3A 1 40536U 15014A 26035.23527657 .00031667 00000+0 58204-3 0 9996 2 40536 97.6834 17.6440 0063554 302.1511 57.3582 15.46897511601212 SENTINEL-2A 1 40697U 15028A 26035.27071001 -.00000012 00000+0 11974-4 0 9995 2 40697 98.5635 112.0614 0001076 96.7656 263.3650 14.30819055554726 GAOFEN-8 1 40701U 15030A 26035.32156731 .00025568 00000+0 62076-3 0 9994 2 40701 97.6912 221.1676 0009613 314.7883 45.2580 15.40964250590954 CARBONITE 1 (CBNT-1) 1 40718U 15032D 26035.29321984 .00000358 00000+0 50211-4 0 9993 2 40718 97.6425 218.9963 0014930 15.6069 344.5602 14.83048234569648 YAOGAN-27 1 40878U 15040A 26035.29598699 -.00000288 00000+0 -64682-3 0 9998 2 40878 100.1057 27.5052 0008353 157.1574 202.9913 13.16063200500185 GAOFEN-9 01 1 40894U 15047A 26035.32205531 .00001475 00000+0 18856-3 0 9996 2 40894 97.6472 76.9505 0026651 213.4783 146.4747 14.82593842560507 YAOGAN-28 1 41026U 15064A 26035.31754317 .00010342 00000+0 41174-3 0 9995 2 41026 97.2851 176.6478 0010067 304.7250 55.3039 15.25384939570412 YAOGAN-29 1 41038U 15069A 26035.32784773 .00000475 00000+0 65227-4 0 9995 2 41038 98.0174 63.6629 0002897 91.7205 268.4340 14.82956418550936 KENT RIDGE 1 1 41167U 15077B 26035.12261566 .00005826 00000+0 21414-3 0 9999 2 41167 14.9787 174.8958 0008592 163.1315 196.9293 15.22147878560783 GAOFEN-4 1 41194U 15083A 26035.04072660 -.00000341 00000+0 00000+0 0 9994 2 41194 0.3065 83.5815 0003252 89.7084 81.2605 1.00270865 37194 JASON-3 1 41240U 16002A 26035.26477528 -.00000051 00000+0 44482-4 0 9999 2 41240 66.0416 45.2920 0007960 274.9089 85.1020 12.87627157470136 SENTINEL-3A 1 41335U 16011A 26035.32037935 .00000152 00000+0 80943-4 0 9998 2 41335 98.6298 104.5817 0001115 105.6504 254.4800 14.26733650519112 ZIYUAN 3-02 (ZY 3-02) 1 41556U 16033A 26035.32619844 .00007510 00000+0 34044-3 0 9997 2 41556 97.3961 113.5816 0013830 58.0009 302.2569 15.21040773537787 CARTOSAT-2C 1 41599U 16040A 26035.27806669 .00003941 00000+0 18974-3 0 9997 2 41599 97.4678 96.9546 0009206 236.4272 123.6084 15.19313876533530 SKYSAT-C1 1 41601U 16040C 26035.10967855 .00011005 00000+0 33880-3 0 9991 2 41601 96.9750 74.1339 0004038 119.6847 240.4799 15.33789125537451 LAPAN-A3 1 41603U 16040E 26035.26125457 .00004581 00000+0 15004-3 0 9993 2 41603 97.1456 35.8970 0012095 126.0564 234.1800 15.32072874534459 GAOFEN-3 1 41727U 16049A 26035.36395341 .00000100 00000+0 43540-4 0 9991 2 41727 98.4049 45.1358 0001062 113.6415 246.4887 14.42207515499500 SKYSAT-C4 1 41771U 16058B 26035.29472892 .00017401 00000+0 38107-3 0 9993 2 41771 96.9322 62.9285 0002955 67.4303 292.7259 15.44163841524935 SKYSAT-C5 1 41772U 16058C 26035.10195280 .00010115 00000+0 30488-3 0 9996 2 41772 97.0675 81.6114 0005971 111.5591 248.6290 15.34478604523343 SKYSAT-C2 1 41773U 16058D 26035.16295346 .00013560 00000+0 35556-3 0 9995 2 41773 97.0313 62.4628 0004210 144.5031 215.6496 15.38767926524570 SKYSAT-C3 1 41774U 16058E 26035.06303197 .00022805 00000+0 45625-3 0 9999 2 41774 96.9223 71.3868 0002141 83.5441 276.6054 15.46772715525492 ALSAT-1B 1 41785U 16059C 26035.29876946 .00000576 00000+0 98962-4 0 9998 2 41785 97.7799 49.7771 0008063 299.1417 60.8983 14.72149022501024 PATHFINDER 1 1 41787U 16059E 26034.97892784 .00001011 00000+0 18596-3 0 9991 2 41787 97.8157 40.2915 0027084 271.2190 88.5912 14.67450938500173 SCATSAT 1 1 41790U 16059H 26035.16965527 .00001584 00000+0 21609-3 0 9997 2 41790 98.1375 97.4916 0054092 317.6766 42.0277 14.79148490 81927 GOKTURK 1A 1 41875U 16073A 26035.26860417 .00000502 00000+0 10760-3 0 9995 2 41875 98.1408 291.9123 0001324 79.6470 280.4881 14.62788374489391 RESOURCESAT-2A 1 41877U 16074A 26035.32939701 .00000340 00000+0 17531-3 0 9991 2 41877 98.7672 109.8535 0003142 103.7328 256.4199 14.21606610475428 CARTOSAT-2D 1 41948U 17008A 26035.31210488 .00004906 00000+0 23548-3 0 9998 2 41948 97.4298 96.9696 0004771 351.0352 9.0797 15.19317091497403 SENTINEL-2B 1 42063U 17013A 26035.34031741 .00000005 00000+0 18422-4 0 9991 2 42063 98.5635 112.0153 0001073 92.2373 267.8933 14.30818192465643 CARTOSAT-2E 1 42767U 17036C 26035.32882389 .00001615 00000+0 80006-4 0 9992 2 42767 97.4464 97.1925 0004558 50.9171 309.2469 15.19190176477977 FORMOSAT-5 1 42920U 17049A 26035.29236508 .00000282 00000+0 82750-4 0 9996 2 42920 98.2372 113.5119 0011950 129.6665 230.5586 14.50801849447400 SENTINEL-5P 1 42969U 17064A 26035.26532084 .00000088 00000+0 62596-4 0 9991 2 42969 98.7844 338.3920 0001174 84.8457 275.2853 14.19540294430704 SKYSAT-C11 1 42987U 17068A 26035.30418604 .00029198 00000+0 51492-3 0 9996 2 42987 97.4175 179.2437 0000778 76.8983 283.2356 15.50364008462600 SKYSAT-C10 1 42988U 17068B 26035.29719332 .00012486 00000+0 40662-3 0 9996 2 42988 97.4295 171.2801 0001970 93.8014 266.3452 15.31984379461998 SKYSAT-C9 1 42989U 17068C 26035.27792265 .00015910 00000+0 43044-3 0 9993 2 42989 97.4222 171.0265 0008274 253.8085 106.2249 15.37752892462302 SKYSAT-C8 1 42990U 17068D 26035.33034145 .00014204 00000+0 42808-3 0 9990 2 42990 97.4313 170.6293 0002877 114.9023 245.2519 15.34426271461920 SKYSAT-C7 1 42991U 17068E 26035.31302349 .00013988 00000+0 43015-3 0 9992 2 42991 97.4322 171.6079 0005863 213.2798 146.8077 15.33777385461989 SKYSAT-C6 1 42992U 17068F 26035.13852948 .00013072 00000+0 42362-3 0 9996 2 42992 97.4355 171.7962 0001752 178.8250 181.2997 15.32130282461937 CARTOSAT-2F 1 43111U 18004A 26035.29539586 .00006729 00000+0 32223-3 0 9994 2 43111 97.4231 97.0425 0001664 23.2006 336.9304 15.19268673447152 GAOFEN-1 02 1 43259U 18031A 26035.33189984 .00000878 00000+0 13373-3 0 9999 2 43259 98.0718 98.1178 0004229 73.2059 286.9614 14.76411901423093 GAOFEN-1 03 1 43260U 18031B 26035.31011650 .00001165 00000+0 17491-3 0 9998 2 43260 98.0708 97.9674 0004000 126.4566 233.7012 14.76435518423084 GAOFEN-1 04 1 43262U 18031D 26035.28582727 .00001422 00000+0 21178-3 0 9997 2 43262 98.0719 98.1185 0001749 114.8491 245.2901 14.76452183423074 SENTINEL-3B 1 43437U 18039A 26035.22338401 .00000137 00000+0 74516-4 0 9998 2 43437 98.6297 104.6328 0000726 72.2266 287.8994 14.26729837405160 GAOFEN-5 01 1 43461U 18043A 26034.47176011 .00000495 00000+0 11211-3 0 9992 2 43461 98.4403 3.3843 0002794 114.5334 245.6157 14.60482145412172 GAOFEN-6 1 43484U 18048A 26035.32001108 .00000569 00000+0 88489-4 0 9995 2 43484 97.7944 102.7664 0010915 243.5280 116.4811 14.76595573413788 GAOFEN-11 01 1 43585U 18063A 26035.33387131 .00021321 00000+0 36682-3 0 9994 2 43585 97.1471 102.8595 0006183 104.0710 256.1230 15.51100152419720 ICESAT-2 1 43613U 18070A 26035.23264043 .00003434 00000+0 12463-3 0 9995 2 43613 92.0002 255.1630 0000780 29.6315 330.4979 15.28286957412156 HYSIS 1 43719U 18096A 26035.23898546 .00001302 00000+0 18469-3 0 9995 2 43719 98.0012 102.9320 0001056 130.8138 229.3164 14.78666774387774 KAZSTSAT 1 43783U 18099AB 26035.32221847 .00002195 00000+0 18311-3 0 9990 2 43783 97.4487 73.1729 0009697 114.3559 245.8678 14.99538198391396 SAUDISAT 5A 1 43831U 18102A 26035.29690106 .00006793 00000+0 26302-3 0 9990 2 43831 97.3259 99.4582 0008626 240.1480 119.8902 15.26464880395397 SAUDISAT 5B 1 43833U 18102C 26035.34114499 .00006922 00000+0 26535-3 0 9996 2 43833 97.3354 102.3350 0009318 243.3084 116.7202 15.26787290395512 GAOFEN-10R 1 44622U 19066A 26035.30191921 .00002037 00000+0 25719-3 0 9990 2 44622 98.0352 348.0461 0005887 208.7806 151.3083 14.83027041342686 CARTOSAT-3 1 44804U 19081A 26035.24413120 .00005122 00000+0 24570-3 0 9992 2 44804 97.4494 99.1244 0012338 258.4978 101.4872 15.19266087343286 GAOFEN-12 01 1 44819U 19082A 26035.26424285 .00000594 00000+0 83802-4 0 9997 2 44819 97.8134 45.1453 0004052 82.2165 277.9508 14.80736792334428 CSG-1 1 44873U 19092A 26035.25811572 .00000807 00000+0 10795-3 0 9993 2 44873 97.8840 220.7833 0001228 86.9838 273.1515 14.82164850331789 NEMO-HD 1 46277U 20061F 26035.26670913 .00011681 00000+0 27868-3 0 9995 2 46277 97.2115 98.7057 0002182 119.3025 240.8440 15.41697735301489 SENTINEL-6A 1 46984U 20086A 26035.27833654 -.00000052 00000+0 37428-4 0 9996 2 46984 66.0410 51.1068 0007890 270.2325 89.7786 12.80929367243300 GAOFEN-12 02 1 48079U 21026A 26035.26127718 .00000689 00000+0 96378-4 0 9998 2 48079 97.9890 34.0236 0001140 330.0142 30.1005 14.80757668262099 PLEIADES NEO 3 1 48268U 21034A 26034.87652662 -.00000569 00000+0 -65672-4 0 9996 2 48268 97.8938 111.5561 0001270 90.5502 269.5856 14.81671072257917 PLEIADES NEO 4 1 49070U 21073E 26033.62716365 .00000568 00000+0 78774-4 0 9998 2 49070 97.8941 110.3208 0001285 93.0730 267.0630 14.81674405241442 LANDSAT 9 1 49260U 21088A 26035.18426367 .00000456 00000+0 11117-3 0 9991 2 49260 98.2007 107.4989 0001310 92.5436 267.5912 14.57111397231637 CSG-2 1 51444U 22008A 26035.29188529 .00000567 00000+0 77811-4 0 9995 2 51444 97.8826 220.8145 0001508 78.3323 281.8060 14.82161315216907 GAOFEN-12 03 1 52912U 22069A 26035.26171488 .00001805 00000+0 24674-3 0 9990 2 52912 97.8457 286.3711 0000952 114.6504 245.4807 14.79770850194952 SWOT 1 54754U 22173A 26035.22625259 .00000078 00000+0 54392-4 0 9990 2 54754 77.6082 214.7875 0000470 0.5693 359.5459 14.00172072160545 GAOFEN-12 04 1 57654U 23123A 26035.29350197 .00001740 00000+0 23748-3 0 9998 2 57654 97.9135 315.2494 0001620 91.0326 269.1072 14.79898736132972 PARS 1 1 59065U 24039Q 26035.28071613 .00014247 00000+0 33036-3 0 9992 2 59065 97.4705 12.4268 0008256 226.5657 133.4903 15.42485586108130 RESURS-P 4 1 59371U 24061A 26035.32041935 .00004814 00000+0 15530-3 0 9994 2 59371 97.2615 345.5920 0003037 101.5927 258.5657 15.32613013103415 LEGION 1 1 59625U 24081A 26035.23397525 .00006159 00000+0 31366-3 0 9996 2 59625 97.5132 114.4185 0006229 114.0879 246.1007 15.17141468 97384 LEGION 2 1 59626U 24081B 26035.26642841 .00005465 00000+0 27847-3 0 9992 2 59626 97.5135 114.5413 0008362 101.3174 258.8999 15.17162499 97398 ALOS-4 (DAICHI-4) 1 60182U 24123A 26032.82517912 .00001936 00000+0 26596-3 0 9996 2 60182 97.9224 131.9413 0001426 102.2341 257.9031 14.79477563 85867 LEGION 3 1 60452U 24146A 26035.26787005 .00005702 00000+0 30693-3 0 9992 2 60452 45.0020 23.1359 0011476 138.2557 221.9199 15.15758751 81853 LEGION 4 1 60453U 24146B 26035.26682319 .00005941 00000+0 31887-3 0 9996 2 60453 45.0022 114.9954 0012325 271.6733 88.2733 15.15786494 80704 SENTINEL-2C 1 60989U 24157A 26035.16555134 .00000152 00000+0 74489-4 0 9990 2 60989 98.5681 111.8642 0001086 77.7429 282.3875 14.30811951 73968 IONOSFERA-M 1 1 61735U 24199A 26035.27662501 .00000089 00000+0 59315-4 0 9995 2 61735 98.7368 269.7032 0001601 124.3547 235.7783 14.22728568108805 IONOSFERA-M 2 1 61736U 24199B 26035.31118257 .00000090 00000+0 59983-4 0 9998 2 61736 98.7366 269.6493 0001279 42.6121 317.5156 14.22730886111932 BIOMASS 1 63772U 25090A 26035.07360523 .00001490 00000+0 27456-3 0 9993 2 63772 98.0721 224.3070 0001246 88.1894 271.9453 14.66978178 41163 GOSAT-GW (IBUKI GW) 1 64694U 25141A 26035.30464383 .00001289 00000+0 23570-3 0 9998 2 64694 98.0475 334.8607 0001528 84.8860 275.2519 14.67554024 32357 IONOSFERA-M 3 1 64876U 25155A 26035.28026521 .00000094 00000+0 62629-4 0 9992 2 64876 98.5862 0.6526 0000485 186.6319 173.4852 14.21457686 27521 IONOSFERA-M 4 1 64877U 25155B 26035.31528490 .00000102 00000+0 66031-4 0 9990 2 64877 98.5860 0.6055 0000660 119.9785 240.1458 14.21459235 27524 MICROCARB 1 64899U 25156A 26035.21158557 .00000823 00000+0 13837-3 0 9992 2 64899 97.9945 114.6833 0015793 341.7201 18.3436 14.72164114 28400 CO3D 3 1 64900U 25156B 26035.22560537 .00031616 00000+0 14570-2 0 9999 2 64900 97.4335 115.8269 0000638 301.9000 58.2173 15.20210375 29333 CO3D 4 1 64901U 25156C 26032.52702288 .00001399 00000+0 67710-4 0 9992 2 64901 97.4338 113.1664 0001358 51.6821 308.4536 15.20208336 28928 CO3D 2 1 64902U 25156D 26035.25823455 .00007190 00000+0 33503-3 0 9993 2 64902 97.4335 115.7569 0000201 249.0831 111.0382 15.20194173 29334 CO3D 1 1 64903U 25156E 26035.25838918 .00005814 00000+0 27150-3 0 9996 2 64903 97.4336 115.7573 0000150 285.9698 74.1520 15.20199601 29338 SENTINEL-6B 1 66514U 25264A 26035.27868702 -.00000050 00000+0 47013-4 0 9991 2 66514 66.0411 51.2321 0008063 270.4025 89.6066 12.80930359 10144 CSG-3 1 67304U 26001A 26035.27080218 .00000372 00000+0 53336-4 0 9998 2 67304 97.8840 220.7954 0001277 90.3696 269.7663 14.82155473 4774